Waynesville, MO

2:43 AM CDT on August 31, 2016 (GMT -0500)
Waynesville Regional At Forney Field

Weather History for KTBN - April, 2014

Change the Weather History Date:

Thursday, April 24, 2014

  Actual Average Record
Temperature  
Mean Temperature 65 °F -  
Max Temperature 78 °F 67 °F 80 °F (2016)
Min Temperature 52 °F 50 °F 34 °F (2013)
Growing Degree Days 15 (Base 50)    
Moisture  
Dew Point 53 °F    
Average Humidity 83    
Maximum Humidity 100    
Minimum Humidity 39    
Precipitation  
Precipitation 1.01 in - - ()
Sea Level Pressure  
Sea Level Pressure 29.71 in    
Wind  
Wind Speed 12 mph (WSW)    
Max Wind Speed 21 mph    
Max Gust Speed 31 mph    
Visibility 8 miles    
Events Rain , Thunderstorm    
Averages and records for this station are not official NWS values.
T = Trace of Precipitation, MM = Missing Value Source: NWS Daily Summary

Daily Weather History Graph

Daily Weather History Graph

Search for Another Location

Airport or City:

Trip Planner

Search our weather history database for the weather conditions in past years. The results will help you decide how hot, cold, wet, or windy it might be!

Date:

Astronomy

Apr. 24, 2014 Rise Set
Actual Time 6:21 AM CDT 7:52 PM CDT
Civil Twilight 5:53 AM CDT 8:20 PM CDT
Nautical Twilight 5:20 AM CDT 8:53 PM CDT
Astronomical Twilight 4:45 AM CDT 9:28 PM CDT
Moon 3:27 AM CDT (4/24) 3:13 PM CDT (4/24)
Length of Visible Light 14h 26m
Length of Day
13h 31m
Waning Crescent, 24% of the Moon is Illuminated
Apr 24
Waning Crescent
Apr 29
New
May 6
First Quarter
May 14
Full
May 21
Last Quarter

Hourly Weather History & Observations

Time (CDT) Temp. Dew Point Humidity Pressure Visibility Wind Dir Wind Speed Gust Speed Precip Events Conditions
12:58 AM 59.4 °F 37.6 °F 44% 29.87 in 10.0 mi SSE 13.8 mph 20.7 mph N/A   Clear
1:58 AM 57.9 °F 37.8 °F 47% 29.84 in 10.0 mi SSE 17.3 mph 24.2 mph N/A   Clear
2:58 AM 57.4 °F 37.8 °F 48% 29.84 in 10.0 mi SSE 13.8 mph - N/A   Clear
3:58 AM 56.1 °F 38.1 °F 51% 29.82 in 10.0 mi SE 15.0 mph - N/A   Clear
4:58 AM 55.6 °F 37.9 °F 52% 29.81 in 10.0 mi SSE 15.0 mph - N/A   Clear
5:58 AM 56.8 °F 37.0 °F 48% 29.79 in 10.0 mi SSE 20.7 mph 26.5 mph N/A   Overcast
6:58 AM 56.7 °F 37.6 °F 49% 29.76 in 10.0 mi SSE 18.4 mph 24.2 mph N/A   Overcast
7:58 AM 59.7 °F 38.5 °F 45% 29.76 in 10.0 mi South 10.4 mph - N/A   Overcast
8:58 AM 62.8 °F 39.6 °F 42% 29.74 in 10.0 mi SSE 15.0 mph - N/A   Mostly Cloudy
9:27 AM 66.2 °F 41.0 °F 40% 29.74 in 10.0 mi South 12.7 mph 26.5 mph N/A   Overcast
9:58 AM 68.2 °F 42.1 °F 39% 29.76 in 10.0 mi South 12.7 mph 21.9 mph N/A   Overcast
10:58 AM 71.1 °F 47.3 °F 43% 29.75 in 10.0 mi South 15.0 mph 26.5 mph N/A   Overcast
11:54 AM 69.8 °F 50.0 °F 49% 29.74 in 10.0 mi South 10.4 mph 23.0 mph N/A   Light Drizzle
11:58 AM 69.1 °F 50.5 °F 52% 29.73 in 10.0 mi South 13.8 mph 23.0 mph 0.00 in   Light Drizzle
12:04 PM 68.0 °F 50.0 °F 52% 29.73 in 10.0 mi South 15.0 mph 21.9 mph N/A   Mostly Cloudy
12:58 PM 71.8 °F 51.6 °F 49% 29.67 in 10.0 mi SSE 17.3 mph 20.7 mph 0.00 in   Scattered Clouds
1:58 PM 75.2 °F 52.5 °F 45% 29.66 in 10.0 mi SSW 11.5 mph 24.2 mph N/A   Scattered Clouds
2:58 PM 75.7 °F 53.2 °F 45% 29.63 in 10.0 mi South 16.1 mph 25.3 mph N/A   Scattered Clouds
3:58 PM 77.5 °F 53.4 °F 43% 29.62 in 10.0 mi SSW 12.7 mph 24.2 mph N/A   Mostly Cloudy
4:32 PM 75.2 °F 53.6 °F 47% 29.65 in 10.0 mi WNW 19.6 mph 25.3 mph N/A   Overcast
4:34 PM 71.6 °F 55.4 °F 57% 29.66 in 10.0 mi WNW 16.1 mph 25.3 mph N/A Rain , Thunderstorm Light Rain
4:37 PM 68.0 °F 59.0 °F 73% 29.66 in 5.0 mi NW 20.7 mph 31.1 mph N/A Rain , Thunderstorm Light Thunderstorms and Rain
4:42 PM 62.6 °F 59.0 °F 88% 29.68 in 1.8 mi WNW 12.7 mph 31.1 mph N/A Rain , Thunderstorm Heavy Thunderstorms and Rain
4:47 PM 60.8 °F 60.8 °F 100% 29.67 in 1.2 mi NW 13.8 mph 31.1 mph N/A Rain , Thunderstorm Heavy Thunderstorms and Rain
4:58 PM 59.0 °F 59.0 °F 100% 29.67 in 8.0 mi NNW 9.2 mph 15.0 mph N/A Rain , Thunderstorm Light Thunderstorms and Rain
5:10 PM 57.2 °F 57.2 °F 100% 29.67 in 3.0 mi NW 11.5 mph - N/A Rain , Thunderstorm Rain
5:12 PM 57.2 °F 57.2 °F 100% 29.67 in 3.0 mi NW 12.7 mph - N/A Rain , Thunderstorm Heavy Thunderstorms and Rain
5:17 PM 57.2 °F 57.2 °F 100% 29.66 in 3.0 mi NNW 8.1 mph - N/A Rain , Thunderstorm Heavy Thunderstorms and Rain
5:22 PM 57.2 °F 57.2 °F 100% 29.67 in 1.8 mi NW 6.9 mph - N/A Rain , Thunderstorm Heavy Thunderstorms and Rain
5:24 PM 57.2 °F 57.2 °F 100% 29.65 in 1.2 mi NNW 9.2 mph - N/A Rain , Thunderstorm Heavy Thunderstorms and Rain
5:27 PM 57.2 °F 57.2 °F 100% 29.66 in 1.2 mi North 8.1 mph - N/A Rain , Thunderstorm Heavy Thunderstorms and Rain
5:32 PM 57.2 °F 57.2 °F 100% 29.66 in 1.8 mi North 8.1 mph - N/A Rain , Thunderstorm Thunderstorms and Rain
5:37 PM 57.2 °F 57.2 °F 100% 29.66 in 5.0 mi North 9.2 mph - N/A Rain , Thunderstorm Thunderstorms and Rain
5:44 PM 57.2 °F 57.2 °F 100% 29.68 in 3.0 mi North 4.6 mph - N/A Rain , Thunderstorm Heavy Rain
5:49 PM 57.2 °F 57.2 °F 100% 29.67 in 2.5 mi NE 3.5 mph - N/A Rain , Thunderstorm Light Rain
5:54 PM 57.2 °F 57.2 °F 100% 29.67 in 7.0 mi ENE 3.5 mph - N/A Rain , Thunderstorm Light Rain
5:56 PM 57.2 °F 57.2 °F 100% 29.67 in 10.0 mi ENE 2.3 mph - N/A Thunderstorm Overcast
5:58 PM 57.2 °F 57.2 °F 100% 29.67 in 10.0 mi ENE 2.3 mph - 0.67 in   Overcast
5:59 PM 57.2 °F 57.2 °F 100% 29.68 in 10.0 mi ENE 1.2 mph - N/A   Light Drizzle
6:29 PM 57.2 °F 57.2 °F 100% 29.69 in 3.0 mi SSW 2.3 mph - N/A Rain Rain
6:39 PM 57.2 °F 57.2 °F 100% 29.68 in 2.0 mi Calm Calm - N/A Rain Heavy Rain
6:44 PM 57.2 °F 57.2 °F 100% 29.67 in 1.5 mi Variable 2.3 mph - N/A Rain Light Rain
6:49 PM 57.2 °F 57.2 °F 100% 29.67 in 2.5 mi West 1.2 mph - N/A Rain Light Rain
6:54 PM 57.2 °F 57.2 °F 100% 29.67 in 4.0 mi West 1.2 mph - N/A Rain Rain
6:58 PM 57.0 °F 57.0 °F 100% 29.66 in 3.0 mi West 2.3 mph - 0.24 in Rain Rain
7:38 PM 57.2 °F 57.2 °F 100% 29.66 in 10.0 mi South 10.4 mph - N/A Rain , Thunderstorm Light Thunderstorms and Rain
7:53 PM 57.2 °F 57.2 °F 100% 29.68 in 10.0 mi South 4.6 mph - N/A Rain Light Rain
7:58 PM 56.5 °F 56.5 °F 100% 29.69 in 10.0 mi SSW 4.6 mph - 0.06 in Rain Light Rain
8:04 PM 57.2 °F 57.2 °F 100% 29.69 in 10.0 mi SW 3.5 mph - N/A   Overcast
8:07 PM 57.2 °F 57.2 °F 100% 29.69 in 10.0 mi SW 3.5 mph - N/A   Light Drizzle
8:08 PM 57.2 °F 57.2 °F 100% 29.69 in 10.0 mi WSW 4.6 mph - N/A   Overcast
8:11 PM 57.2 °F 57.2 °F 100% 29.69 in 10.0 mi Variable 4.6 mph - N/A   Light Drizzle
8:16 PM 57.2 °F 57.2 °F 100% 29.69 in 10.0 mi SSW 4.6 mph - N/A Rain Light Rain
8:26 PM 57.2 °F 57.2 °F 100% 29.70 in 10.0 mi SW 5.8 mph - N/A Rain Light Rain
8:35 PM 57.2 °F 57.2 °F 100% 29.69 in 10.0 mi SW 4.6 mph - N/A   Overcast
8:58 PM 56.3 °F 56.3 °F 100% 29.70 in 10.0 mi WSW 5.8 mph - 0.01 in   Overcast
9:03 PM 57.2 °F 57.2 °F 100% 29.71 in 10.0 mi WSW 4.6 mph - N/A   Overcast
9:24 PM 57.2 °F 57.2 °F 100% 29.72 in 7.0 mi West 6.9 mph - N/A Rain Light Rain
9:34 PM 57.2 °F 57.2 °F 100% 29.73 in 6.0 mi WNW 16.1 mph 23.0 mph N/A Rain Light Rain
9:58 PM 55.6 °F 55.6 °F 100% 29.73 in 7.0 mi NW 12.7 mph 25.3 mph 0.03 in Rain Light Rain
10:41 PM 53.6 °F 53.6 °F 100% 29.76 in 10.0 mi WNW 9.2 mph 23.0 mph N/A   Overcast
10:47 PM 53.6 °F 53.6 °F 100% 29.77 in 10.0 mi NW 12.7 mph 16.1 mph N/A   Light Drizzle
10:58 PM 53.8 °F 53.8 °F 100% 29.77 in 10.0 mi WNW 10.4 mph 20.7 mph 0.00 in   Light Drizzle
10:59 PM 53.6 °F 53.6 °F 100% 29.77 in 10.0 mi NW 11.5 mph 20.7 mph N/A   Overcast
11:24 PM 53.6 °F 53.6 °F 100% 29.78 in 10.0 mi NW 12.7 mph 21.9 mph N/A   Overcast
11:51 PM 53.6 °F 53.6 °F 100% 29.79 in 10.0 mi WNW 9.2 mph - N/A   Light Drizzle
11:56 PM 53.6 °F 53.6 °F 100% 29.79 in 10.0 mi WNW 10.4 mph - N/A Rain Light Rain
11:58 PM 52.9 °F 52.9 °F 100% 29.79 in 10.0 mi WNW 11.5 mph 18.4 mph 0.00 in Rain Light Rain